STARLINK-36121

Last updated on Fri Dec 19 2025 00:02:08 GMT+0000 (Coordinated Universal Time)

1 66940U 25286R 25352.58336806 -.01353193 00000+0 -72118-2 0 9991 2 66940 53.1554 21.0059 0000859 69.6611 68.4831 15.82637932 2938
UTC large
Height (km)
Speed (km/s)
/
Latitude / Longitude
Inclination (degrees)
Orbital Period (minutes)
Azimuth
Elevation
Range (km)
Doppler Factor

Next 0 passes for location: London (51.5072 / 0.1276)

Sorry there are no passes over London.